FW5284 Weather Reports


Display with metric or nautical units.
time (UTC)temp
F
wind
direction
speed
MPH
gust
MPH
rain 1hr
in
rain 24hr
in
rain mn
in
humidity
%
barometer
mb
20260901141008 60 84 0.0 0.0 0.01 0.17 0.17 93 1018.7
20260901140508 60 84 0.0 2.0 0.01 0.17 0.17 94 1018.8
20260901140021 60 84 0.0 2.0 0.02 0.17 0.17 93 1018.8
20260901135515 59 84 0.0 0.0 0.03 0.17 0.17 93 1018.7
20260901135011 59 84 0.0 0.0 0.03 0.17 0.17 93 1018.5
20260901134527 59 84 0.0 1.0 0.04 0.17 0.17 94 1018.7
20260901134011 59 84 0.0 1.0 0.05 0.17 0.17 93 1018.8
20260901133513 59 84 0.0 1.0 0.06 0.17 0.17 93 1018.7
20260901133031 59 84 0.0 1.0 0.06 0.17 0.17 93 1018.7
20260901132504 59 84 0.0 1.0 0.07 0.17 0.17 93 1018.8
20260901132003 59 84 0.0 0.0 0.08 0.17 0.17 93 1019.0
20260901131510 59 84 0.0 0.0 0.08 0.17 0.17 93 1019.1
20260901131006 59 84 0.0 0.0 0.08 0.16 0.16 93 1019.1
20260901130508 59 84 0.0 0.0 0.08 0.16 0.16 93 1019.2
20260901130018 60 84 0.0 0.0 0.08 0.15 0.15 93 1019.3
20260901125513 60 84 0.0 0.0 0.08 0.14 0.14 93 1019.2
20260901125011 60 84 0.0 0.0 0.09 0.14 0.14 93 1019.2
20260901124524 60 84 0.0 0.0 0.09 0.13 0.13 93 1019.3
20260901124011 60 83 0.0 1.0 0.09 0.12 0.12 93 1019.3
20260901123512 60 83 0.0 1.0 0.09 0.11 0.11 93 1019.3
20260901123027 60 83 0.0 0.0 0.10 0.11 0.11 93 1019.4
20260901122515 60 83 0.0 0.0 0.09 0.10 0.10 93 1019.4
20260901122015 60 83 0.0 0.0 0.09 0.09 0.09 93 1019.4
20260901121538 60 83 0.0 1.0 0.09 0.09 0.09 92 1019.5
20260901121006 60 82 0.0 1.0 0.08 0.08 0.08 92 1019.6
20260901120507 60 82 0.0 0.0 0.08 0.08 0.08 92 1019.5
20260901120012 60 82 0.0 2.0 0.07 0.07 0.07 92 1019.5
20260901115508 60 82 0.0 2.0 0.06 0.06 0.06 92 1019.5
20260901115008 60 82 0.0 1.0 0.05 0.05 0.05 92 1019.6
20260901114522 60 81 0.0 1.0 0.04 0.04 0.04 91 1019.5
20260901114011 60 81 0.0 1.0 0.03 0.03 0.03 91 1019.2
20260901113512 60 81 0.0 1.0 0.02 0.02 0.02 91 1019.1
20260901113027 60 82 0.0 3.0 0.01 0.01 0.01 91 1018.9
20260901112513 60 82 0.0 3.0 0.01 0.01 0.01 91 1018.8
20260901112016 61 82 0.0 3.0 0.00 0.00 0.00 91 1018.9
20260901111527 60 82 0.0 0.0 0.00 0.00 0.00 90 1018.8
20260901111017 60 82 0.0 0.0 0.00 0.00 0.00 90 1018.8
20260901110516 60 82 0.0 0.0 0.00 0.00 0.00 90 1018.6
20260901110030 60 82 0.0 0.0 0.00 0.00 0.00 90 1018.5
20260901105514 60 82 0.0 0.0 0.00 0.00 0.00 90 1018.6
20260901105011 60 82 0.0 0.0 0.00 0.00 0.00 90 1018.7
20260901104531 60 82 0.0 0.0 0.00 0.00 0.00 90 1018.5
20260901104010 60 82 0.0 0.0 0.00 0.00 0.00 90 1018.5
20260901103510 60 82 0.0 0.0 0.00 0.00 0.00 90 1018.5
20260901103030 60 82 0.0 0.0 0.00 0.00 0.00 90 1018.3
20260901102512 60 82 0.0 0.0 0.00 0.00 0.00 90 1018.3
20260901102014 60 82 0.0 0.0 0.00 0.00 0.00 90 1018.3
20260901101524 60 82 0.0 0.0 0.00 0.00 0.00 90 1018.4
20260901101016 60 82 0.0 0.0 0.00 0.00 0.00 90 1018.2
20260901100514 60 79 0.0 0.0 0.00 0.00 0.00 90 1018.2
20260901100030 60 79 0.0 0.0 0.00 0.00 0.00 90 1018.1
20260901095517 60 79 0.0 0.0 0.00 0.00 0.00 90 1018.0
20260901095016 59 117 0.0 0.0 0.00 0.00 0.00 91 1018.1
20260901094531 59 117 0.0 0.0 0.00 0.00 0.00 90 1017.9
20260901094019 59 117 0.0 0.0 0.00 0.00 0.00 90 1017.9
20260901093507 59 117 0.0 0.0 0.00 0.00 0.00 90 1017.9
20260901093019 59 117 0.0 0.0 0.00 0.00 0.00 91 1017.9
20260901092511 59 117 0.0 0.0 0.00 0.00 0.00 91 1018.0
20260901092011 59 117 0.0 0.0 0.00 0.00 0.00 91 1018.0
20260901091533 59 117 0.0 0.0 0.00 0.00 0.00 91 1017.9
20260901091012 59 117 0.0 0.0 0.00 0.00 0.00 91 1017.9
20260901090514 59 117 0.0 0.0 0.00 0.00 0.00 91 1017.9
20260901090044 59 117 0.0 0.0 0.00 0.00 0.00 91 1018.1
20260901085502 59 117 0.0 0.0 0.00 0.00 0.00 91 1018.0
20260901085002 59 117 0.0 0.0 0.00 0.00 0.00 91 1018.0
20260901084506 58 117 0.0 0.0 0.00 0.00 0.00 91 1017.9
20260901084005 58 117 0.0 1.0 0.00 0.00 0.00 91 1017.8
20260901083502 58 117 0.0 1.0 0.00 0.00 0.00 91 1017.9
20260901083004 58 117 0.0 1.0 0.00 0.00 0.00 91 1017.7
20260901082501 59 117 0.0 0.0 0.00 0.00 0.00 91 1017.9
20260901082002 59 117 0.0 0.0 0.00 0.00 0.00 91 1017.9
20260901081503 59 117 0.0 0.0 0.00 0.00 0.00 91 1018.0
20260901081003 59 117 0.0 0.0 0.00 0.00 0.00 91 1017.9
20260901080503 59 117 0.0 0.0 0.00 0.00 0.00 91 1017.9
20260901080012 59 117 0.0 0.0 0.00 0.00 0.00 91 1018.0
20260901075503 59 117 0.0 0.0 0.00 0.00 0.00 91 1018.0
20260901075003 59 117 0.0 0.0 0.00 0.00 0.00 91 1018.0
20260901074506 58 117 0.0 0.0 0.00 0.00 0.00 91 1018.0
20260901074003 58 117 0.0 0.0 0.00 0.00 0.00 91 1018.1
20260901073503 58 117 0.0 0.0 0.00 0.00 0.00 91 1018.2
20260901073012 58 117 0.0 0.0 0.00 0.00 0.00 91 1018.4
20260901072503 58 117 0.0 0.0 0.00 0.00 0.00 91 1018.4
20260901072004 58 117 0.0 0.0 0.00 0.00 0.00 91 1018.2
20260901071502 58 117 0.0 0.0 0.00 0.00 0.00 91 1018.4
20260901071003 58 117 0.0 0.0 0.00 0.00 0.00 91 1018.2
20260901070502 58 117 0.0 0.0 0.00 0.00 0.00 91 1018.1
20260901070004 58 117 0.0 0.0 0.00 0.00 0.00 91 1018.3
20260901065503 58 117 0.0 0.0 0.00 0.00 0.00 91 1018.5
20260901065006 58 117 0.0 0.0 0.00 0.00 0.00 90 1018.5
20260901064504 58 117 0.0 0.0 0.00 0.00 0.00 90 1018.5
20260901064004 58 117 0.0 0.0 0.00 0.00 0.00 90 1018.5
20260901063506 58 117 0.0 0.0 0.00 0.00 0.00 90 1018.6
20260901063004 58 117 0.0 0.0 0.00 0.00 0.00 90 1018.4
20260901062503 58 117 0.0 0.0 0.00 0.00 0.00 90 1018.6
20260901062004 58 117 0.0 0.0 0.00 0.00 0.00 89 1018.6
20260901061506 58 117 0.0 0.0 0.00 0.00 0.00 89 1018.6
20260901061004 59 117 0.0 0.0 0.00 0.00 0.00 89 1018.5
20260901060503 59 117 0.0 0.0 0.00 0.00 0.00 89 1018.5
20260901060006 59 117 0.0 0.0 0.00 0.00 0.00 89 1018.5
20260901055506 59 117 0.0 0.0 0.00 0.00 0.00 89 1018.5
20260901055003 59 117 0.0 0.0 0.00 0.00 0.00 88 1018.6
20260901054504 59 117 0.0 0.0 0.00 0.00 0.00 89 1018.6
20260901054003 59 117 0.0 2.0 0.00 0.00 0.00 88 1018.7
20260901053504 59 117 0.0 2.0 0.00 0.00 0.00 88 1018.7
20260901053007 60 117 1.0 2.0 0.00 0.00 0.00 88 1018.7
20260901052502 60 226 0.0 0.0 0.00 0.00 0.00 88 1018.6
20260901052005 60 226 0.0 0.0 0.00 0.00 0.00 88 1018.6
20260901051505 60 226 0.0 0.0 0.00 0.00 0.00 88 1018.7
20260901051003 60 226 0.0 0.0 0.00 0.00 0.00 87 1018.8
20260901050504 60 226 0.0 0.0 0.00 0.00 0.00 87 1018.8
20260901050007 60 226 0.0 0.0 0.00 0.00 0.00 87 1018.8
20260901045505 60 226 0.0 0.0 0.00 0.00 0.00 87 1018.7
20260901045004 60 226 0.0 0.0 0.00 0.00 0.00 87 1018.7
20260901044507 60 226 0.0 0.0 0.00 0.00 0.00 87 1018.6
20260901044003 60 226 0.0 0.0 0.00 0.00 0.00 87 1018.5
20260901043503 60 226 0.0 0.0 0.00 0.00 0.00 87 1018.5
20260901043012 60 226 0.0 0.0 0.00 0.00 0.00 87 1018.6
20260901042503 60 226 0.0 0.0 0.00 0.00 0.00 87 1018.7
20260901042002 61 226 0.0 0.0 0.00 0.00 0.00 87 1018.6
20260901041508 61 226 0.0 0.0 0.00 0.00 0.00 87 1018.6
20260901041005 61 226 0.0 0.0 0.00 0.00 0.00 86 1018.6
20260901040504 61 226 0.0 0.0 0.00 0.00 0.00 86 1018.6
20260901040013 61 226 0.0 0.0 0.00 0.00 0.00 86 1018.6
20260901035503 61 226 0.0 0.0 0.00 0.00 0.00 86 1018.7
20260901035002 61 226 0.0 0.0 0.00 0.00 0.00 86 1018.7
20260901034512 61 226 0.0 0.0 0.00 0.00 0.00 86 1018.8
20260901034006 61 226 0.0 0.0 0.00 0.00 0.00 86 1018.8
20260901033505 62 226 0.0 0.0 0.00 0.00 0.00 86 1018.8
20260901033027 62 226 0.0 0.0 0.00 0.00 0.00 85 1018.7
20260901032505 62 226 0.0 0.0 0.00 0.00 0.00 85 1018.7
20260901032004 62 226 0.0 0.0 0.00 0.00 0.00 85 1018.8
20260901031511 62 226 0.0 0.0 0.00 0.00 0.00 84 1018.7
20260901031002 62 226 0.0 0.0 0.00 0.00 0.00 84 1018.8
20260901030506 62 226 0.0 0.0 0.00 0.00 0.00 83 1018.8
20260901030011 62 226 0.0 0.0 0.00 0.00 0.00 83 1018.8
20260901025507 63 226 0.0 0.0 0.00 0.00 0.00 83 1018.8
20260901025003 63 226 0.0 0.0 0.00 0.00 0.00 82 1018.9
20260901024513 63 226 0.0 0.0 0.00 0.00 0.00 82 1018.8
20260901024006 63 226 0.0 0.0 0.00 0.00 0.00 82 1018.9
20260901023506 63 226 0.0 0.0 0.00 0.00 0.00 82 1018.9
20260901023012 63 226 0.0 0.0 0.00 0.00 0.00 82 1018.8
20260901022503 63 226 0.0 0.0 0.00 0.00 0.00 82 1018.8
20260901022007 63 226 0.0 0.0 0.00 0.00 0.00 81 1018.8
20260901021526 63 226 0.0 0.0 0.00 0.00 0.00 81 1018.7
20260901021008 64 226 0.0 0.0 0.00 0.00 0.00 80 1018.7
20260901020504 64 226 0.0 0.0 0.00 0.00 0.00 80 1018.8
20260901020008 64 226 0.0 0.0 0.00 0.00 0.00 79 1018.7
20260901015504 64 226 0.0 0.0 0.00 0.00 0.00 79 1018.7
20260901015003 64 226 0.0 0.0 0.00 0.00 0.00 79 1018.7
20260901014513 64 226 0.0 0.0 0.00 0.00 0.00 78 1018.6
20260901014008 64 226 0.0 0.0 0.00 0.00 0.00 78 1018.6
20260901013508 65 226 0.0 0.0 0.00 0.00 0.00 78 1018.7
20260901013021 65 226 0.0 0.0 0.00 0.00 0.00 77 1018.8
20260901012507 65 226 0.0 1.0 0.00 0.00 0.00 77 1018.8
20260901012005 65 226 0.0 1.0 0.00 0.00 0.00 76 1018.7
20260901011519 65 226 0.0 1.0 0.00 0.00 0.00 76 1018.9
20260901011006 66 226 0.0 1.0 0.00 0.00 0.00 75 1018.9
20260901010509 66 226 0.0 0.0 0.00 0.00 0.00 75 1018.9
20260901010037 66 226 0.0 0.0 0.00 0.00 0.00 74 1019.1
20260901005506 66 226 0.0 0.0 0.00 0.00 0.00 73 1018.9
20260901005004 67 226 0.0 0.0 0.00 0.00 0.00 73 1018.7
20260901004510 67 226 0.0 1.0 0.00 0.00 0.00 72 1018.7
20260901004005 67 226 0.0 2.0 0.00 0.00 0.00 72 1018.7
20260901003511 67 226 0.0 3.0 0.00 0.00 0.00 71 1018.7
20260901003014 67 222 0.0 3.0 0.00 0.00 0.00 71 1018.7
20260901002507 67 229 1.0 3.0 0.00 0.00 0.00 70 1018.6
20260901002007 67 206 0.0 1.0 0.00 0.00 0.00 69 1018.5
20260901001517 68 206 0.0 0.0 0.00 0.00 0.00 68 1018.5
20260901001007 68 206 0.0 0.0 0.00 0.00 0.00 68 1018.5
20260901000508 68 206 0.0 0.0 0.00 0.00 0.00 67 1018.4
20260901000019 68 206 0.0 0.0 0.00 0.00 0.00 67 1018.4
20260831235508 68 206 0.0 3.0 0.00 0.00 0.00 67 1018.4
20260831235004 69 206 0.0 3.0 0.00 0.00 0.00 66 1018.2
20260831234506 69 286 0.0 0.0 0.00 0.00 0.00 66 1018.3
20260831234004 69 286 0.0 0.0 0.00 0.00 0.00 66 1018.3
20260831233503 70 286 0.0 0.0 0.00 0.00 0.00 66 1018.3
20260831233011 70 286 0.0 0.0 0.00 0.00 0.00 64 1018.5
20260831232510 70 286 0.0 0.0 0.00 0.00 0.00 64 1018.5
20260831232010 71 286 0.0 0.0 0.00 0.00 0.00 65 1018.5
20260831231517 71 286 0.0 0.0 0.00 0.00 0.00 64 1018.6
20260831231010 72 286 0.0 0.0 0.00 0.00 0.00 63 1018.7
20260831230508 72 286 0.0 0.0 0.00 0.00 0.00 63 1018.6
20260831230023 72 286 0.0 0.0 0.00 0.00 0.00 63 1018.6
20260831225511 73 286 0.0 0.0 0.00 0.00 0.00 63 1018.7
20260831225011 73 286 0.0 0.0 0.00 0.00 0.00 62 1018.8
20260831224506 73 286 0.0 0.0 0.00 0.00 0.00 61 1018.8
20260831224004 73 286 0.0 0.0 0.00 0.00 0.00 61 1018.8
20260831223506 73 286 0.0 0.0 0.00 0.00 0.00 61 1018.8
20260831223017 74 286 0.0 0.0 0.00 0.00 0.00 60 1018.7
20260831222502 74 286 0.0 0.0 0.00 0.00 0.00 60 1018.7
20260831222007 74 286 0.0 0.0 0.00 0.00 0.00 60 1018.6
20260831221516 74 286 0.0 0.0 0.00 0.00 0.00 58 1018.7
20260831221008 75 286 0.0 0.0 0.00 0.00 0.00 54 1018.7
20260831220508 75 286 0.0 0.0 0.00 0.00 0.00 53 1018.7
20260831220023 76 285 0.0 0.0 0.00 0.00 0.00 51 1018.6
20260831215514 76 285 0.0 1.0 0.00 0.00 0.00 51 1018.5
20260831215016 76 285 0.0 3.0 0.00 0.00 0.00 50 1018.6
20260831214526 76 285 1.0 3.0 0.00 0.00 0.00 48 1018.6
20260831214011 76 165 0.0 0.0 0.00 0.00 0.00 48 1018.6
20260831213513 76 131 0.0 2.0 0.00 0.00 0.00 50 1018.6
20260831213008 76 128 0.0 2.0 0.00 0.00 0.00 49 1018.6
20260831212504 77 92 0.0 2.0 0.00 0.00 0.00 49 1018.6
20260831212003 77 79 0.0 3.0 0.00 0.00 0.00 47 1018.5
20260831211513 77 79 0.0 3.0 0.00 0.00 0.00 48 1018.6
20260831211006 77 106 0.0 3.0 0.00 0.00 0.00 49 1018.7
20260831210508 78 106 0.0 4.0 0.00 0.00 0.00 47 1018.7
20260831210020 78 352 0.0 4.0 0.00 0.00 0.00 48 1018.7
20260831205509 78 278 0.0 4.0 0.00 0.00 0.00 43 1018.7
20260831205013 78 283 2.0 4.0 0.00 0.00 0.00 45 1018.7
20260831204523 78 284 1.0 5.0 0.00 0.00 0.00 44 1018.7
20260831204012 78 280 2.0 6.0 0.00 0.00 0.00 45 1018.8
20260831203512 78 288 1.0 6.0 0.00 0.00 0.00 45 1018.9
20260831203026 78 278 2.0 6.0 0.00 0.00 0.00 46 1018.9
20260831202511 78 299 1.0 3.0 0.00 0.00 0.00 45 1018.8
20260831202015 78 284 0.0 3.0 0.00 0.00 0.00 44 1018.9
20260831201510 78 94 0.0 5.0 0.00 0.00 0.00 45 1018.9
20260831201004 78 286 0.0 5.0 0.00 0.00 0.00 46 1018.9
20260831200504 78 285 0.0 5.0 0.00 0.00 0.00 47 1018.8
20260831200020 78 284 1.0 5.0 0.00 0.00 0.00 45 1018.9
20260831195507 78 288 1.0 4.0 0.00 0.00 0.00 48 1018.9
20260831195010 78 1 0.0 6.0 0.00 0.00 0.00 50 1018.9
20260831194531 78 271 2.0 7.0 0.00 0.00 0.00 49 1018.9
20260831194011 77 299 3.0 7.0 0.00 0.00 0.00 49 1019.1
20260831193515 77 298 0.0 6.0 0.00 0.00 0.00 49 1019.1
20260831193028 77 136 2.0 7.0 0.00 0.00 0.00 48 1019.1
20260831192513 77 211 2.0 7.0 0.00 0.00 0.00 49 1019.1
20260831192013 77 200 0.0 3.0 0.00 0.00 0.00 49 1019.1
20260831191527 77 359 0.0 4.0 0.00 0.00 0.00 49 1019.1
20260831191012 77 41 1.0 5.0 0.00 0.00 0.00 50 1019.1
20260831190514 77 285 1.0 5.0 0.00 0.00 0.00 48 1019.4
20260831190012 77 278 2.0 7.0 0.00 0.00 0.00 47 1019.4
20260831185508 77 286 4.0 7.0 0.00 0.00 0.00 47 1019.5
20260831185006 77 294 1.0 5.0 0.00 0.00 0.00 47 1019.5
20260831184518 77 287 1.0 6.0 0.00 0.00 0.00 48 1019.6
20260831184007 77 270 3.0 7.0 0.00 0.00 0.00 48 1019.6
20260831183512 77 276 3.0 7.0 0.00 0.00 0.00 47 1019.7
20260831183025 77 290 2.0 7.0 0.00 0.00 0.00 48 1019.7
20260831182514 77 197 1.0 6.0 0.00 0.00 0.00 47 1019.8
20260831182013 77 296 2.0 6.0 0.00 0.00 0.00 46 1019.9
20260831181535 77 279 0.0 5.0 0.00 0.00 0.00 46 1019.9
20260831181013 77 132 1.0 7.0 0.00 0.00 0.00 46 1019.8
20260831180516 77 285 1.0 8.0 0.00 0.00 0.00 45 1019.8
20260831180027 77 291 3.0 8.0 0.00 0.00 0.00 44 1019.8
20260831175505 77 148 1.0 6.0 0.00 0.00 0.00 45 1019.9
20260831175005 77 297 3.0 6.0 0.00 0.00 0.00 46 1020.1
20260831174530 77 290 3.0 6.0 0.00 0.00 0.00 49 1020.1
20260831174009 77 216 1.0 5.0 0.00 0.00 0.00 47 1020.1
20260831173513 77 280 2.0 4.0 0.00 0.00 0.00 49 1020.3
20260831173018 77 182 1.0 4.0 0.00 0.00 0.00 48 1020.3
20260831172502 77 309 1.0 4.0 0.00 0.00 0.00 47 1020.4
20260831172003 77 105 0.0 6.0 0.00 0.00 0.00 48 1020.4
20260831171504 78 153 0.0 6.0 0.00 0.00 0.00 47 1020.4
20260831171004 78 288 1.0 5.0 0.00 0.00 0.00 47 1020.4
20260831170504 78 34 1.0 3.0 0.00 0.00 0.00 45 1020.5
20260831170008 78 325 0.0 3.0 0.00 0.00 0.00 42 1020.5
20260831165504 78 49 1.0 3.0 0.00 0.00 0.00 41 1020.6
20260831165003 78 83 1.0 3.0 0.00 0.00 0.00 44 1020.5
20260831164511 78 98 0.0 5.0 0.00 0.00 0.00 42 1020.5
20260831164005 77 302 0.0 5.0 0.00 0.00 0.00 43 1020.7
20260831163506 77 264 0.0 3.0 0.00 0.00 0.00 45 1020.8
20260831163014 77 184 0.0 5.0 0.00 0.00 0.00 46 1020.7
20260831162509 77 209 0.0 5.0 0.00 0.00 0.00 45 1020.8
20260831162009 77 269 1.0 5.0 0.00 0.00 0.00 45 1020.8
20260831161524 77 302 1.0 5.0 0.00 0.00 0.00 47 1020.8
20260831161002 77 293 4.0 5.0 0.00 0.00 0.00 46 1020.9
20260831160502 76 225 1.0 4.0 0.00 0.00 0.00 46 1020.9
20260831160006 77 134 1.0 4.0 0.00 0.00 0.00 45 1021.0
20260831155504 76 148 0.0 3.0 0.00 0.00 0.00 48 1021.1
20260831155004 76 45 1.0 3.0 0.00 0.00 0.00 50 1021.1
20260831154529 76 338 0.0 3.0 0.00 0.00 0.00 49 1021.1
20260831154004 76 112 1.0 5.0 0.00 0.00 0.00 46 1021.1
20260831153503 76 89 2.0 5.0 0.00 0.00 0.00 49 1021.3
20260831153015 76 44 0.0 4.0 0.00 0.00 0.00 51 1021.4
20260831152506 76 93 0.0 3.0 0.00 0.00 0.00 49 1021.3
20260831152007 76 45 0.0 4.0 0.00 0.00 0.00 49 1021.3
20260831151519 75 257 1.0 5.0 0.00 0.00 0.00 51 1021.3
20260831151012 75 72 0.0 5.0 0.00 0.00 0.00 54 1021.4
20260831150510 75 177 1.0 4.0 0.00 0.00 0.00 52 1021.4
20260831150026 75 130 1.0 3.0 0.00 0.00 0.00 54 1021.4
20260831145507 75 322 0.0 4.0 0.00 0.00 0.00 55 1021.4
20260831145005 74 332 1.0 4.0 0.00 0.00 0.00 55 1021.5
20260831144507 74 115 1.0 4.0 0.00 0.00 0.00 55 1021.5
20260831144004 74 80 1.0 6.0 0.00 0.00 0.00 56 1021.6
20260831143504 74 350 1.0 6.0 0.00 0.00 0.00 56 1021.6
20260831143010 74 176 1.0 3.0 0.00 0.00 0.00 57 1021.6
20260831142504 73 50 1.0 2.0 0.00 0.00 0.00 59 1021.7
20260831142007 73 38 0.0 4.0 0.00 0.00 0.00 60 1021.6
20260831141517 72 31 0.0 4.0 0.00 0.00 0.00 61 1021.5